nws-alerts: Checking more than four warning/county codes can delay the loading of your pages. You should use a cron job to get the data.
EllijayWeather Station Historical Data
Daily Summary for February 3, 2019 Units:  English    Metric   Both
Daily Weekly Monthly Yearly Custom
  High: Low: Average:
Temperature: 58.8 °F 38.7 °F 48.1 °F
Dew Point: 52.2 °F 37.2 °F 44.4 °F
Humidity: 99% 69% 88%
Wind Speed: 2.0mph 0.0mph 0mph
Wind Gust: 5.0mph - -
Wind- - SE
Pressure: 30.22 in 30.09 in -
Precipitation: 0.10 in    
Historical Graphs
 
 
Tabular Data for February 3, 2019
Time Temperature Dew Point Pressure Wind Wind Speed Wind Gust Humidity Rainfall Rate (Hourly) solar
00:04 45.9 °F 37.8 °F 30.22 in Calm     73% 0.00 in meteobridge W/m2
00:09 45.7 °F 37.9 °F 30.22 in Calm     74% 0.00 in meteobridge W/m2
00:14 45.7 °F 37.9 °F 30.21 in Calm     74% 0.00 in meteobridge W/m2
00:19 45.5 °F 37.8 °F 30.21 in Calm     74% 0.00 in meteobridge W/m2
00:24 45.3 °F 37.6 °F 30.21 in Calm     74% 0.00 in meteobridge W/m2
00:29 45.3 °F 37.6 °F 30.20 in Calm     74% 0.00 in meteobridge W/m2
00:34 45.3 °F 37.9 °F 30.20 in Calm     75% 0.00 in meteobridge W/m2
00:39 45.3 °F 37.6 °F 30.20 in Calm     74% 0.00 in meteobridge W/m2
00:44 45.1 °F 37.8 °F 30.20 in Calm     75% 0.00 in meteobridge W/m2
00:49 45.1 °F 37.8 °F 30.20 in Calm     75% 0.00 in meteobridge W/m2
00:54 45.0 °F 37.9 °F 30.20 in Calm     76% 0.00 in meteobridge W/m2
00:59 45.0 °F 37.9 °F 30.20 in Calm     76% 0.00 in meteobridge W/m2
01:04 44.8 °F 37.8 °F 30.20 in Calm     76% 0.00 in meteobridge W/m2
01:09 44.6 °F 37.6 °F 30.20 in Calm     76% 0.00 in meteobridge W/m2
01:14 44.4 °F 37.4 °F 30.20 in Calm     76% 0.00 in meteobridge W/m2
01:19 44.2 °F 37.2 °F 30.20 in Calm     76% 0.00 in meteobridge W/m2
01:24 44.1 °F 37.4 °F 30.20 in Calm     77% 0.00 in meteobridge W/m2
01:29 44.1 °F 37.4 °F 30.20 in Calm     77% 0.00 in meteobridge W/m2
01:34 44.1 °F 37.6 °F 30.19 in Calm     78% 0.00 in meteobridge W/m2
01:39 44.1 °F 37.6 °F 30.19 in Calm     78% 0.00 in meteobridge W/m2
01:43 43.9 °F 37.4 °F 30.19 in Calm     78% 0.00 in meteobridge W/m2
01:49 43.9 °F 37.4 °F 30.18 in Calm     78% 0.00 in meteobridge W/m2
01:54 43.9 °F 37.4 °F 30.18 in Calm     78% 0.00 in meteobridge W/m2
01:59 43.9 °F 37.4 °F 30.18 in Calm     78% 0.00 in meteobridge W/m2
02:04 43.9 °F 37.4 °F 30.18 in Calm     78% 0.00 in meteobridge W/m2
02:09 43.7 °F 37.2 °F 30.19 in Calm     78% 0.00 in meteobridge W/m2
02:14 43.7 °F 37.2 °F 30.19 in Calm     78% 0.00 in meteobridge W/m2
02:19 43.5 °F 37.4 °F 30.19 in Calm     79% 0.00 in meteobridge W/m2
02:24 43.5 °F 37.4 °F 30.18 in Calm     79% 0.00 in meteobridge W/m2
02:29 43.5 °F 37.4 °F 30.18 in Calm     79% 0.00 in meteobridge W/m2
02:34 43.3 °F 37.2 °F 30.18 in Calm     79% 0.00 in meteobridge W/m2
02:38 43.3 °F 37.2 °F 30.18 in Calm     79% 0.00 in meteobridge W/m2
02:44 43.3 °F 37.6 °F 30.18 in Calm     80% 0.00 in meteobridge W/m2
02:49 43.3 °F 37.6 °F 30.18 in Calm     80% 0.00 in meteobridge W/m2
02:54 43.5 °F 38.1 °F 30.18 in Calm     81% 0.00 in meteobridge W/m2
02:59 43.5 °F 37.8 °F 30.18 in Calm     80% 0.00 in meteobridge W/m2
03:04 43.7 °F 37.9 °F 30.18 in Calm     80% 0.00 in meteobridge W/m2
03:09 43.9 °F 38.1 °F 30.18 in Calm     80% 0.00 in meteobridge W/m2
03:14 43.9 °F 38.1 °F 30.17 in Calm     80% 0.00 in meteobridge W/m2
03:19 44.1 °F 38.3 °F 30.17 in Calm     80% 0.00 in meteobridge W/m2
03:24 44.1 °F 38.3 °F 30.17 in Calm     80% 0.00 in meteobridge W/m2
03:29 44.1 °F 38.3 °F 30.17 in Calm     80% 0.00 in meteobridge W/m2
03:34 44.1 °F 38.3 °F 30.16 in Calm     80% 0.00 in meteobridge W/m2
03:39 44.2 °F 38.8 °F 30.17 in Calm     81% 0.00 in meteobridge W/m2
03:44 44.2 °F 38.8 °F 30.17 in Calm     81% 0.00 in meteobridge W/m2
03:49 44.4 °F 39.9 °F 30.17 in Calm     84% 0.00 in meteobridge W/m2
03:54 44.4 °F 40.5 °F 30.17 in Calm     86% 0.01 in meteobridge W/m2
03:59 44.4 °F 41.2 °F 30.17 in Calm     88% 0.01 in meteobridge W/m2
04:04 44.2 °F 41.5 °F 30.17 in Calm     90% 0.01 in meteobridge W/m2
04:09 44.1 °F 41.4 °F 30.16 in Calm     90% 0.02 in meteobridge W/m2
04:14 43.9 °F 41.4 °F 30.16 in Calm     91% 0.02 in meteobridge W/m2
04:19 43.9 °F 41.7 °F 30.16 in Calm     92% 0.02 in meteobridge W/m2
04:24 43.7 °F 41.5 °F 30.16 in Calm     92% 0.02 in meteobridge W/m2
04:29 43.7 °F 41.5 °F 30.16 in Calm     92% 0.02 in meteobridge W/m2
04:34 43.7 °F 41.7 °F 30.16 in Calm     93% 0.02 in meteobridge W/m2
04:39 43.7 °F 42.1 °F 30.16 in Calm     94% 0.02 in meteobridge W/m2
04:44 43.9 °F 42.3 °F 30.16 in Calm     94% 0.02 in meteobridge W/m2
04:49 43.9 °F 42.3 °F 30.16 in Calm     94% 0.03 in meteobridge W/m2
04:54 43.9 °F 42.3 °F 30.16 in Calm     94% 0.04 in meteobridge W/m2
04:59 43.9 °F 42.6 °F 30.16 in Calm     95% 0.06 in meteobridge W/m2
05:03 43.9 °F 42.6 °F 30.16 in Calm     95% 0.06 in meteobridge W/m2
05:09 44.1 °F 42.8 °F 30.15 in Calm     95% 0.05 in meteobridge W/m2
05:14 44.1 °F 42.8 °F 30.15 in Calm     95% 0.05 in meteobridge W/m2
05:19 44.1 °F 42.8 °F 30.15 in Calm     95% 0.05 in meteobridge W/m2
05:24 44.1 °F 42.8 °F 30.15 in Calm     95% 0.05 in meteobridge W/m2
05:29 44.2 °F 43.2 °F 30.15 in Calm     96% 0.05 in meteobridge W/m2
05:34 44.1 °F 43.0 °F 30.15 in Calm     96% 0.05 in meteobridge W/m2
05:39 44.2 °F 43.0 °F 30.15 in Calm     95% 0.05 in meteobridge W/m2
05:44 44.2 °F 43.2 °F 30.15 in Calm     96% 0.05 in meteobridge W/m2
05:49 44.2 °F 43.2 °F 30.15 in Calm     96% 0.04 in meteobridge W/m2
05:54 44.2 °F 43.2 °F 30.15 in Calm     96% 0.02 in meteobridge W/m2
05:59 44.2 °F 43.2 °F 30.15 in Calm     96% 0.00 in meteobridge W/m2
06:04 44.2 °F 43.2 °F 30.15 in Calm     96% 0.00 in meteobridge W/m2
06:09 44.2 °F 43.2 °F 30.15 in Calm     96% 0.00 in meteobridge W/m2
06:14 44.4 °F 43.3 °F 30.15 in Calm     96% 0.00 in meteobridge W/m2
06:19 44.4 °F 43.3 °F 30.16 in Calm     96% 0.01 in meteobridge W/m2
06:24 44.4 °F 43.3 °F 30.16 in Calm     96% 0.01 in meteobridge W/m2
06:29 44.6 °F 43.5 °F 30.16 in Calm     96% 0.01 in meteobridge W/m2
06:34 44.6 °F 43.5 °F 30.16 in Calm     96% 0.01 in meteobridge W/m2
06:39 44.8 °F 43.7 °F 30.16 in Calm   1.0 mph 96% 0.01 in meteobridge W/m2
06:44 44.8 °F 44.1 °F 30.16 in Calm     97% 0.01 in meteobridge W/m2
06:49 44.8 °F 44.1 °F 30.16 in Calm     97% 0.01 in meteobridge W/m2
06:54 44.8 °F 44.1 °F 30.16 in Calm     97% 0.01 in meteobridge W/m2
06:59 44.8 °F 44.1 °F 30.16 in Calm     97% 0.01 in meteobridge W/m2
07:04 45.0 °F 43.9 °F 30.16 in Calm     96% 0.01 in meteobridge W/m2
07:09 44.8 °F 44.1 °F 30.16 in Calm     97% 0.01 in meteobridge W/m2
07:14 45.0 °F 44.2 °F 30.17 in Calm     97% 0.00 in meteobridge W/m2
07:19 45.0 °F 44.2 °F 30.17 in Calm     97% 0.01 in meteobridge W/m2
07:24 45.0 °F 44.2 °F 30.17 in Calm     97% 0.01 in meteobridge W/m2
07:29 45.0 °F 44.2 °F 30.17 in Calm     97% 0.01 in meteobridge W/m2
07:34 45.0 °F 44.2 °F 30.17 in Calm     97% 0.01 in meteobridge W/m2
07:39 45.0 °F 44.2 °F 30.18 in Calm     97% 0.01 in meteobridge W/m2
07:44 45.0 °F 44.2 °F 30.17 in Calm     97% 0.01 in meteobridge W/m2
07:49 45.0 °F 44.2 °F 30.18 in Calm     97% 0.01 in meteobridge W/m2
07:54 45.0 °F 44.2 °F 30.18 in Calm     97% 0.01 in meteobridge W/m2
07:59 45.0 °F 44.2 °F 30.18 in Calm     97% 0.01 in meteobridge W/m2
08:04 45.0 °F 44.2 °F 30.18 in Calm     97% 0.01 in meteobridge W/m2
08:09 45.1 °F 44.4 °F 30.18 in Calm     97% 0.01 in meteobridge W/m2
08:14 45.1 °F 44.4 °F 30.18 in Calm     97% 0.01 in meteobridge W/m2
08:19 45.1 °F 44.4 °F 30.18 in Calm     97% 0.00 in meteobridge W/m2
08:24 45.1 °F 44.4 °F 30.18 in Calm     97% 0.00 in meteobridge W/m2
08:29 45.1 °F 44.4 °F 30.17 in Calm     97% 0.00 in meteobridge W/m2
08:34 45.3 °F 44.8 °F 30.17 in Calm     98% 0.00 in meteobridge W/m2
08:39 45.5 °F 45.0 °F 30.18 in Calm     98% 0.00 in meteobridge W/m2
08:44 45.5 °F 45.0 °F 30.18 in Calm     98% 0.00 in meteobridge W/m2
08:49 45.7 °F 45.1 °F 30.18 in Calm     98% 0.00 in meteobridge W/m2
08:54 45.9 °F 45.3 °F 30.18 in Calm     98% 0.00 in meteobridge W/m2
08:59 46.0 °F 45.5 °F 30.18 in Calm     98% 0.00 in meteobridge W/m2
09:03 46.0 °F 45.5 °F 30.18 in Calm     98% 0.00 in meteobridge W/m2
09:09 46.2 °F 45.7 °F 30.19 in Calm     98% 0.00 in meteobridge W/m2
09:14 46.6 °F 46.0 °F 30.19 in Calm     98% 0.00 in meteobridge W/m2
09:19 46.8 °F 46.2 °F 30.19 in Calm     98% 0.00 in meteobridge W/m2
09:24 46.9 °F 46.4 °F 30.19 in Calm     98% 0.00 in meteobridge W/m2
09:29 46.9 °F 46.4 °F 30.19 in Calm     98% 0.00 in meteobridge W/m2
09:34 47.3 °F 46.8 °F 30.19 in Calm   2.0 mph 98% 0.00 in meteobridge W/m2
09:39 47.5 °F 46.9 °F 30.19 in Calm     98% 0.00 in meteobridge W/m2
09:44 47.7 °F 47.1 °F 30.19 in Calm     98% 0.00 in meteobridge W/m2
09:49 47.8 °F 47.3 °F 30.19 in Calm     98% 0.00 in meteobridge W/m2
09:54 47.8 °F 47.3 °F 30.19 in Calm     98% 0.00 in meteobridge W/m2
09:59 48.0 °F 47.5 °F 30.19 in Calm     98% 0.00 in meteobridge W/m2
10:04 48.2 °F 47.7 °F 30.19 in Calm     98% 0.00 in meteobridge W/m2
10:09 48.6 °F 48.0 °F 30.19 in Calm     98% 0.00 in meteobridge W/m2
10:14 48.7 °F 48.2 °F 30.19 in Calm     98% 0.00 in meteobridge W/m2
10:19 48.9 °F 48.4 °F 30.19 in Calm     98% 0.00 in meteobridge W/m2
10:24 49.3 °F 48.7 °F 30.19 in Calm     98% 0.00 in meteobridge W/m2
10:29 49.5 °F 48.9 °F 30.19 in Calm     98% 0.00 in meteobridge W/m2
10:33 49.8 °F 49.3 °F 30.19 in Calm     98% 0.00 in meteobridge W/m2
10:39 50.2 °F 49.8 °F 30.19 in Calm     99% 0.00 in meteobridge W/m2
10:44 50.2 °F 49.6 °F 30.19 in Calm     98% 0.00 in meteobridge W/m2
10:49 50.4 °F 49.8 °F 30.19 in Calm     98% 0.00 in meteobridge W/m2
10:54 50.5 °F 50.0 °F 30.19 in Calm     98% 0.00 in meteobridge W/m2
10:59 50.7 °F 50.2 °F 30.19 in Calm     98% 0.00 in meteobridge W/m2
11:04 50.7 °F 50.2 °F 30.19 in Calm     98% 0.00 in meteobridge W/m2
11:09 50.9 °F 50.4 °F 30.19 in Calm     98% 0.00 in meteobridge W/m2
11:14 51.1 °F 50.5 °F 30.19 in Calm     98% 0.00 in meteobridge W/m2
11:19 51.1 °F 50.5 °F 30.19 in Calm     98% 0.00 in meteobridge W/m2
11:24 51.3 °F 50.7 °F 30.19 in Calm     98% 0.00 in meteobridge W/m2
11:29 51.4 °F 50.9 °F 30.19 in Calm     98% 0.00 in meteobridge W/m2
11:34 51.4 °F 50.9 °F 30.19 in Calm     98% 0.01 in meteobridge W/m2
11:39 51.4 °F 50.9 °F 30.18 in Calm     98% 0.01 in meteobridge W/m2
11:44 51.6 °F 51.1 °F 30.18 in Calm     98% 0.01 in meteobridge W/m2
11:49 51.6 °F 51.1 °F 30.18 in Calm     98% 0.01 in meteobridge W/m2
11:54 51.6 °F 51.1 °F 30.18 in Calm     98% 0.01 in meteobridge W/m2
11:59 51.8 °F 51.3 °F 30.18 in Calm     98% 0.01 in meteobridge W/m2
12:04 51.8 °F 51.3 °F 30.18 in Calm     98% 0.01 in meteobridge W/m2
12:09 52.0 °F 51.4 °F 30.18 in Calm     98% 0.01 in meteobridge W/m2
12:14 52.0 °F 51.4 °F 30.18 in Calm     98% 0.01 in meteobridge W/m2
12:19 52.0 °F 51.1 °F 30.18 in Calm     97% 0.01 in meteobridge W/m2
12:24 52.2 °F 51.6 °F 30.17 in Calm     98% 0.01 in meteobridge W/m2
12:29 52.3 °F 51.8 °F 30.17 in Calm     98% 0.01 in meteobridge W/m2
12:34 52.3 °F 51.8 °F 30.17 in Calm     98% 0.00 in meteobridge W/m2
12:39 52.5 °F 51.6 °F 30.16 in Calm     97% 0.00 in meteobridge W/m2
12:44 52.5 °F 51.1 °F 30.16 in Calm     95% 0.00 in meteobridge W/m2
12:49 52.7 °F 51.6 °F 30.16 in Calm     96% 0.00 in meteobridge W/m2
12:54 52.9 °F 51.8 °F 30.15 in Calm     96% 0.00 in meteobridge W/m2
12:59 53.2 °F 52.2 °F 30.15 in Calm     96% 0.00 in meteobridge W/m2
13:04 53.2 °F 51.3 °F 30.14 in Calm     93% 0.00 in meteobridge W/m2
13:09 53.8 °F 51.8 °F 30.14 in Calm   4.0 mph 93% 0.00 in meteobridge W/m2
13:14 54.0 °F 50.5 °F 30.14 in Calm   2.0 mph 88% 0.00 in meteobridge W/m2
13:19 54.1 °F 50.0 °F 30.14 in Calm   2.0 mph 86% 0.00 in meteobridge W/m2
13:24 54.7 °F 49.3 °F 30.14 in ESE 2.0 mph 2.0 mph 82% 0.00 in meteobridge W/m2
13:29 55.2 °F 49.1 °F 30.14 in Calm   1.0 mph 80% 0.00 in meteobridge W/m2
13:34 55.6 °F 49.1 °F 30.13 in Calm   5.0 mph 79% 0.00 in meteobridge W/m2
13:39 56.1 °F 48.9 °F 30.13 in Calm   1.0 mph 77% 0.00 in meteobridge W/m2
13:44 56.7 °F 48.4 °F 30.13 in Calm   2.0 mph 74% 0.00 in meteobridge W/m2
13:49 56.7 °F 49.1 °F 30.13 in SE 2.0 mph 2.0 mph 76% 0.00 in meteobridge W/m2
13:54 56.7 °F 49.1 °F 30.12 in SE 0.9 mph 1.0 mph 76% 0.00 in meteobridge W/m2
13:59 56.8 °F 48.9 °F 30.12 in Calm   1.0 mph 75% 0.00 in meteobridge W/m2
14:04 56.8 °F 48.6 °F 30.12 in Calm   4.0 mph 74% 0.00 in meteobridge W/m2
14:09 57.4 °F 49.5 °F 30.12 in Calm     75% 0.00 in meteobridge W/m2
14:14 57.7 °F 49.5 °F 30.12 in Calm     74% 0.00 in meteobridge W/m2
14:19 58.3 °F 49.3 °F 30.12 in Calm     72% 0.00 in meteobridge W/m2
14:24 58.5 °F 48.4 °F 30.11 in Calm     69% 0.00 in meteobridge W/m2
14:29 58.5 °F 49.1 °F 30.11 in Calm   1.0 mph 71% 0.00 in meteobridge W/m2
14:34 58.5 °F 48.4 °F 30.11 in Calm     69% 0.00 in meteobridge W/m2
14:39 58.3 °F 48.2 °F 30.11 in Calm     69% 0.00 in meteobridge W/m2
14:44 58.3 °F 48.2 °F 30.11 in Calm     69% 0.00 in meteobridge W/m2
14:49 58.1 °F 49.5 °F 30.11 in Calm     73% 0.00 in meteobridge W/m2
14:54 58.3 °F 48.9 °F 30.11 in Calm     71% 0.00 in meteobridge W/m2
14:59 58.3 °F 50.0 °F 30.11 in Calm     74% 0.00 in meteobridge W/m2
15:04 58.5 °F 49.5 °F 30.11 in Calm     72% 0.00 in meteobridge W/m2
15:09 58.5 °F 49.8 °F 30.11 in Calm     73% 0.00 in meteobridge W/m2
15:14 58.6 °F 50.4 °F 30.10 in Calm     74% 0.00 in meteobridge W/m2
15:19 58.6 °F 48.9 °F 30.10 in Calm     70% 0.00 in meteobridge W/m2
15:24 58.6 °F 49.3 °F 30.10 in Calm   1.0 mph 71% 0.00 in meteobridge W/m2
15:29 58.6 °F 48.9 °F 30.10 in Calm     70% 0.00 in meteobridge W/m2
15:34 58.8 °F 49.1 °F 30.10 in Calm     70% 0.00 in meteobridge W/m2
15:38 58.8 °F 49.1 °F 30.10 in Calm     70% 0.00 in meteobridge W/m2
15:44 58.8 °F 49.1 °F 30.10 in Calm     70% 0.00 in meteobridge W/m2
15:49 58.8 °F 49.5 °F 30.10 in Calm   1.0 mph 71% 0.00 in meteobridge W/m2
15:54 58.6 °F 48.9 °F 30.10 in Calm     70% 0.00 in meteobridge W/m2
15:59 58.6 °F 50.0 °F 30.10 in Calm     73% 0.00 in meteobridge W/m2
16:04 58.5 °F 48.7 °F 30.10 in Calm     70% 0.00 in meteobridge W/m2
16:09 58.5 °F 49.1 °F 30.10 in Calm     71% 0.00 in meteobridge W/m2
16:14 58.5 °F 49.1 °F 30.10 in Calm     71% 0.00 in meteobridge W/m2
16:19 58.3 °F 49.3 °F 30.10 in Calm     72% 0.00 in meteobridge W/m2
16:24 58.1 °F 49.1 °F 30.10 in Calm     72% 0.00 in meteobridge W/m2
16:29 57.9 °F 49.6 °F 30.10 in Calm     74% 0.00 in meteobridge W/m2
16:34 57.9 °F 50.0 °F 30.10 in Calm     75% 0.00 in meteobridge W/m2
16:39 57.6 °F 49.6 °F 30.10 in Calm     75% 0.00 in meteobridge W/m2
16:44 57.6 °F 48.9 °F 30.10 in Calm     73% 0.00 in meteobridge W/m2
16:49 57.6 °F 49.3 °F 30.10 in Calm     74% 0.00 in meteobridge W/m2
16:54 57.6 °F 49.6 °F 30.10 in Calm     75% 0.00 in meteobridge W/m2
16:59 57.6 °F 49.3 °F 30.10 in Calm     74% 0.00 in meteobridge W/m2
17:04 57.6 °F 48.6 °F 30.10 in Calm     72% 0.00 in meteobridge W/m2
17:09 57.6 °F 48.9 °F 30.09 in Calm     73% 0.00 in meteobridge W/m2
17:14 57.6 °F 49.3 °F 30.09 in Calm     74% 0.00 in meteobridge W/m2
17:19 57.4 °F 49.1 °F 30.09 in Calm     74% 0.00 in meteobridge W/m2
17:24 57.4 °F 49.1 °F 30.09 in Calm     74% 0.00 in meteobridge W/m2
17:29 57.0 °F 48.7 °F 30.09 in Calm     74% 0.00 in meteobridge W/m2
17:34 56.7 °F 48.7 °F 30.09 in Calm     75% 0.00 in meteobridge W/m2
17:39 56.5 °F 48.7 °F 30.09 in Calm     75% 0.00 in meteobridge W/m2
17:44 55.9 °F 48.6 °F 30.09 in Calm     76% 0.00 in meteobridge W/m2
17:49 55.4 °F 48.4 °F 30.09 in Calm     77% 0.00 in meteobridge W/m2
17:54 55.2 °F 48.6 °F 30.09 in Calm     78% 0.00 in meteobridge W/m2
17:59 54.9 °F 49.1 °F 30.09 in Calm     81% 0.00 in meteobridge W/m2
18:04 54.5 °F 48.2 °F 30.09 in Calm     79% 0.00 in meteobridge W/m2
18:09 54.1 °F 48.0 °F 30.09 in Calm     80% 0.00 in meteobridge W/m2
18:14 53.8 °F 47.8 °F 30.09 in Calm     80% 0.00 in meteobridge W/m2
18:19 53.2 °F 47.5 °F 30.10 in Calm     81% 0.00 in meteobridge W/m2
18:24 52.9 °F 47.5 °F 30.10 in Calm     82% 0.00 in meteobridge W/m2
18:29 52.5 °F 46.9 °F 30.10 in Calm     81% 0.00 in meteobridge W/m2
18:34 52.2 °F 46.8 °F 30.10 in Calm     82% 0.00 in meteobridge W/m2
18:39 51.6 °F 46.6 °F 30.11 in Calm     83% 0.00 in meteobridge W/m2
18:44 51.3 °F 46.6 °F 30.11 in Calm     84% 0.00 in meteobridge W/m2
18:49 50.9 °F 46.2 °F 30.11 in Calm     84% 0.00 in meteobridge W/m2
18:54 50.5 °F 45.9 °F 30.11 in Calm     84% 0.00 in meteobridge W/m2
18:59 50.2 °F 45.9 °F 30.11 in Calm     85% 0.00 in meteobridge W/m2
19:04 49.6 °F 45.7 °F 30.11 in Calm     86% 0.00 in meteobridge W/m2
19:09 49.5 °F 45.7 °F 30.11 in Calm     87% 0.00 in meteobridge W/m2
19:14 48.9 °F 45.5 °F 30.11 in Calm     88% 0.00 in meteobridge W/m2
19:19 48.7 °F 45.3 °F 30.12 in Calm     88% 0.00 in meteobridge W/m2
19:24 48.6 °F 45.5 °F 30.12 in Calm     89% 0.00 in meteobridge W/m2
19:29 48.2 °F 45.1 °F 30.12 in Calm     89% 0.00 in meteobridge W/m2
19:34 47.8 °F 44.8 °F 30.12 in Calm     89% 0.00 in meteobridge W/m2
19:39 47.7 °F 45.0 °F 30.12 in Calm     90% 0.00 in meteobridge W/m2
19:44 47.1 °F 45.5 °F 30.12 in Calm     94% 0.00 in meteobridge W/m2
19:49 46.9 °F 44.2 °F 30.11 in Calm     90% 0.00 in meteobridge W/m2
19:54 46.8 °F 44.1 °F 30.11 in Calm     90% 0.00 in meteobridge W/m2
19:59 46.4 °F 43.9 °F 30.12 in Calm     91% 0.00 in meteobridge W/m2
20:04 46.0 °F 43.5 °F 30.12 in Calm     91% 0.00 in meteobridge W/m2
20:09 45.9 °F 43.3 °F 30.12 in Calm     91% 0.00 in meteobridge W/m2
20:14 45.5 °F 43.0 °F 30.12 in Calm     91% 0.00 in meteobridge W/m2
20:19 45.3 °F 43.2 °F 30.12 in Calm     92% 0.00 in meteobridge W/m2
20:24 45.0 °F 42.8 °F 30.12 in Calm     92% 0.00 in meteobridge W/m2
20:29 44.8 °F 42.6 °F 30.12 in Calm     92% 0.00 in meteobridge W/m2
20:34 44.6 °F 42.4 °F 30.12 in Calm     92% 0.00 in meteobridge W/m2
20:39 44.4 °F 42.3 °F 30.12 in Calm     92% 0.00 in meteobridge W/m2
20:44 44.2 °F 42.3 °F 30.12 in Calm     93% 0.00 in meteobridge W/m2
20:49 44.1 °F 42.1 °F 30.12 in Calm     93% 0.00 in meteobridge W/m2
20:54 43.9 °F 41.9 °F 30.12 in Calm     93% 0.00 in meteobridge W/m2
20:59 43.5 °F 41.9 °F 30.12 in Calm     94% 0.00 in meteobridge W/m2
21:04 43.5 °F 41.7 °F 30.12 in Calm     93% 0.00 in meteobridge W/m2
21:09 43.3 °F 41.5 °F 30.12 in Calm     93% 0.00 in meteobridge W/m2
21:14 43.3 °F 41.7 °F 30.12 in Calm     94% 0.00 in meteobridge W/m2
21:19 43.2 °F 41.5 °F 30.13 in Calm     94% 0.00 in meteobridge W/m2
21:24 43.0 °F 41.4 °F 30.13 in Calm     94% 0.00 in meteobridge W/m2
21:29 42.6 °F 41.0 °F 30.13 in Calm     94% 0.00 in meteobridge W/m2
21:34 42.4 °F 40.8 °F 30.13 in Calm     94% 0.00 in meteobridge W/m2
21:39 42.3 °F 40.6 °F 30.13 in Calm     94% 0.00 in meteobridge W/m2
21:44 42.1 °F 40.5 °F 30.13 in Calm     94% 0.00 in meteobridge W/m2
21:49 41.9 °F 40.3 °F 30.13 in Calm     94% 0.00 in meteobridge W/m2
21:54 41.7 °F 40.1 °F 30.13 in Calm     94% 0.00 in meteobridge W/m2
21:58 41.5 °F 39.9 °F 30.13 in Calm     94% 0.00 in meteobridge W/m2
22:04 41.4 °F 39.7 °F 30.13 in Calm     94% 0.00 in meteobridge W/m2
22:09 41.4 °F 40.1 °F 30.13 in Calm     95% 0.00 in meteobridge W/m2
22:14 41.2 °F 39.9 °F 30.14 in Calm     95% 0.00 in meteobridge W/m2
22:19 41.2 °F 39.9 °F 30.13 in Calm     95% 0.00 in meteobridge W/m2
22:24 40.8 °F 39.6 °F 30.13 in Calm     95% 0.00 in meteobridge W/m2
22:29 40.6 °F 39.0 °F 30.13 in Calm     94% 0.00 in meteobridge W/m2
22:34 40.5 °F 39.2 °F 30.13 in Calm     95% 0.00 in meteobridge W/m2
22:39 40.5 °F 39.2 °F 30.13 in Calm     95% 0.00 in meteobridge W/m2
22:44 40.3 °F 39.0 °F 30.13 in Calm     95% 0.00 in meteobridge W/m2
22:49 40.3 °F 39.0 °F 30.13 in Calm     95% 0.00 in meteobridge W/m2
22:54 39.9 °F 38.7 °F 30.13 in Calm     95% 0.00 in meteobridge W/m2
22:59 39.9 °F 38.7 °F 30.13 in Calm     95% 0.00 in meteobridge W/m2
23:04 39.9 °F 38.7 °F 30.12 in Calm     95% 0.00 in meteobridge W/m2
23:09 39.9 °F 38.7 °F 30.12 in Calm     95% 0.00 in meteobridge W/m2
23:14 39.9 °F 38.7 °F 30.12 in Calm     95% 0.00 in meteobridge W/m2
23:19 39.7 °F 38.5 °F 30.12 in Calm     95% 0.00 in meteobridge W/m2
23:24 39.6 °F 38.3 °F 30.12 in Calm     95% 0.00 in meteobridge W/m2
23:29 39.6 °F 38.3 °F 30.12 in Calm     95% 0.00 in meteobridge W/m2
23:34 39.4 °F 38.1 °F 30.13 in Calm     95% 0.00 in meteobridge W/m2
23:39 39.2 °F 37.9 °F 30.13 in Calm     95% 0.00 in meteobridge W/m2
23:44 39.0 °F 37.8 °F 30.13 in Calm     95% 0.00 in meteobridge W/m2
23:49 38.8 °F 37.6 °F 30.13 in Calm     95% 0.00 in meteobridge W/m2
23:54 38.7 °F 37.4 °F 30.13 in Calm     95% 0.00 in meteobridge W/m2
23:59 38.7 °F 37.4 °F 30.13 in Calm     95% 0.00 in meteobridge W/m2
EllijayWeather
Compliments of Weather Underground - 2.5 mb